SENTINEL-6B

Last updated on Mon Sep 21 2026 00:02:46 GMT+0000 (Coordinated Universal Time)

1 66514U 25264A 26263.41655418 -.00000041 00000+0 85810-4 0 9995 2 66514 66.0408 297.3866 0007880 267.8945 92.1168 12.80929321 39368
UTC large
Height (km)
Speed (km/s)
/
Latitude / Longitude
Inclination (degrees)
Orbital Period (minutes)
Azimuth
Elevation
Range (km)
Doppler Factor

Next 0 passes for location: London (51.5072 / 0.1276)

No passes found over London.
SENTINEL-6B